Simultaneous Nadir Overpasses (SNOs) Predictions

Prediction of SNOs near US between AQUA and NPP Satellite Orbit:

Table of predicted SNOs near US for the next 10.0 days since TLE Epoch: 8/29/2015
Index Date (AQUA) Time (AQUA) AQUA Lat,Lon Date (NPP) Time (NPP) NPP Lat,Lon Distance(km) Time Diff (sec)
1 08/31/2015 07:45:39 20.04, -89.52 08/31/2015 07:38:46 20.03, -89.36 16.72 413
2 08/31/2015 09:20:36 34.23,-110.65 08/31/2015 09:16:12 34.30,-110.94 26.90 264
3 09/03/2015 06:30:17 46.38, -65.03 09/03/2015 06:33:58 46.76, -67.03 159.02 221
4 09/03/2015 08:08:11 49.88, -88.36 09/03/2015 08:14:25 50.37, -90.87 187.02 374
5 09/05/2015 19:06:17 49.96, -92.50 09/05/2015 19:04:38 49.62, -94.33 137.12 99
6 09/05/2015 20:44:16 46.75,-115.94 09/05/2015 20:45:10 46.29,-118.32 189.39 54




NCC Satellite Simultaneous Nadir Overpasses (SNOs) Prediction Service
